#timestamp,LO_Frequency,Hit,StdDev 
1543816815.6,286046995.8,N
1543816835.4,286046995.8,N
1543816855.2,286046995.2,N
1543816875.1,286046995.3,N
1543816876.0,286046995.3,N
1543816895.8,286046997.3,N
1543816915.7,286047001.1,N
1543816935.5,286047001.2,N
1543816955.3,286046998.1,N
1543816975.2,286047002.0,N
1543816995.0,286047003.0,N
1543816995.9,286047003.0,N
1543817015.7,286047001.4,N
1543817035.6,286047001.5,N
1543817055.4,286046999.9,N
1543817075.3,286047000.1,N
1543817095.1,286046999.9,N
1543817096.0,286046999.9,N
1543817115.8,286047002.6,N
1543817135.7,286047000.3,N
1543817155.5,286047002.7,N
1543817175.3,286047000.1,N
1543817195.2,286046998.2,N
1543817215.0,286046998.5,N
1543817215.9,286046998.5,N
1543817235.8,286047001.1,N
1543817255.6,286046998.5,N
1543817275.4,286046996.9,N
1543817295.3,286046999.3,N
1543817315.1,286047000.2,N
1543817335.8,286047000.3,N
1543817355.7,286047002.9,N
1543817375.5,286047007.6,Y
1543817395.4,286047006.4,P
1543817415.2,286047008.9,N
1543817435.0,286047006.6,N
1543817436.0,286047006.6,N
1543817455.8,286047004.9,N
1543817475.6,286047005.8,N
1543817495.5,286047004.1,N
1543817515.3,286046999.7,N
1543817535.1,286047000.2,N
1543817555.9,286047002.3,N
1543817575.7,286047003.3,N
1543817595.5,286047003.5,N
1543817615.4,286047002.7,N
1543817635.2,286047004.7,N
1543817655.1,286047006.2,N
1543817656.0,286047006.2,N
1543817675.8,286047007.1,N
1543817695.6,286047010.6,Y
1543817715.5,286047006.2,P
1543817735.3,286047004.6,P
1543817755.2,286047005.5,P
1543817775.9,286047006.0,Y
1543817795.7,286046999.4,P
1543817815.6,286046996.9,N
1543817835.4,286046997.5,N
1543817855.2,286046995.4,N
1543817875.1,286046995.0,N
1543817876.0,286046995.0,N
1543817895.8,286046996.4,N
1543817915.7,286046994.2,N
1543817935.5,286046994.2,N
1543817955.3,286046992.8,N
1543817975.2,286046990.6,N
1543817995.9,286046991.4,N
1543818015.7,286046991.6,N
1543818035.6,286046991.4,N
1543818055.4,286046993.2,N
1543818075.2,286046990.1,N
1543818095.1,286046993.2,N
1543818096.0,286046993.2,N
1543818115.8,286046990.1,N
1543818135.7,286046991.1,N
1543818155.5,286046991.5,N
1543818175.3,286046991.1,N
1543818195.2,286046988.6,Y
1543818215.0,286046993.4,P
1543818215.9,286046993.4,P
1543818235.8,286046993.3,P
1543818255.6,286046994.2,Y
1543818275.4,286047000.3,P
1543818295.3,286047003.5,N
1543818315.1,286047011.8,N
1543818335.8,286047011.6,N
1543818355.7,286047011.9,N
1543818375.5,286047010.1,N
1543818395.4,286047008.6,N
1543818415.2,286047006.2,N
1543818435.0,286047007.1,N
1543818435.9,286047007.1,N
1543818455.8,286047005.4,N
1543818475.6,286047003.1,N
1543818495.4,286047004.2,N
1543818515.3,286047005.2,N
1543818535.1,286047007.5,N
1543818555.9,286047006.0,N
1543818575.7,286047007.6,N
1543818595.5,286047005.1,N
1543818615.4,286047004.7,N
1543818635.2,286047008.7,N
1543818655.0,286047007.4,N
1543818655.9,286047007.4,N
1543818675.8,286047005.5,N
1543818695.6,286047003.3,N
1543818715.5,286047004.2,N
1543818735.3,286047003.9,N
1543818755.1,286047003.2,N
1543818775.9,286047003.8,N
1543818795.7,286047003.1,N
1543818815.5,286047005.8,N
1543818835.4,286047003.1,N
1543818855.2,286047001.3,N
1543818875.1,286047002.3,N
1543818876.0,286047002.3,N
1543818895.8,286047002.8,N
1543818915.6,286046999.7,N
1543818935.5,286047000.2,N
1543818955.3,286047000.3,N
1543818975.1,286047000.4,N
1543818995.9,286047004.4,N
1543819015.7,286047002.1,N
1543819035.6,286047003.9,N
1543819055.4,286047005.0,N
1543819075.2,286047005.5,N
1543819095.1,286047005.6,N
1543819096.0,286047005.6,N
1543819115.8,286047006.0,N
1543819135.6,286047003.0,N
1543819155.5,286047003.9,N
1543819175.3,286047001.6,N
1543819195.2,286047005.6,N
1543819215.9,286047008.4,Y
1543819235.7,286047009.8,P
1543819255.6,286047015.7,P
1543819275.4,286047020.3,P
1543819295.2,286047018.6,N
1543819315.1,286047015.5,N
1543819316.0,286047015.5,N
1543819335.8,286047010.9,N
1543819355.7,286047010.5,N
1543819375.5,286047006.3,N
1543819395.3,286047007.4,N
1543819415.2,286047005.2,N
1543819435.0,286047003.0,N
1543819435.9,286047003.0,N
1543819455.7,286047003.7,N
1543819475.6,286047001.7,N
1543819495.4,286047001.7,N
1543819515.3,286047001.4,N
1543819535.1,286047001.3,N
1543819536.0,286047001.3,N
1543819555.8,286047004.4,N
1543819575.7,286047002.3,N
1543819595.5,286047000.0,N
1543819615.3,286046998.2,N
1543819635.2,286046998.9,N
1543819655.0,286046998.8,N
1543819655.9,286046998.8,N
1543819675.8,286046999.0,N
1543819695.6,286046998.4,N
1543819715.4,286046999.5,N
1543819735.3,286046996.6,N
1543819755.1,286046997.8,N
1543819775.8,286046995.1,N
1543819795.7,286046994.9,N
1543819815.5,286046997.2,N
1543819835.4,286046997.8,N
1543819855.2,286046995.7,N
1543819875.0,286046995.3,N
1543819875.9,286046995.3,N
1543819895.8,286046997.9,N
1543819915.6,286046997.0,N
1543819935.4,286046997.7,N
1543819955.3,286046995.7,N
1543819975.1,286046993.7,N
1543819995.9,286046995.8,N
1543820015.7,286046993.4,N
1543820035.5,286046996.3,N
1543820055.4,286046995.2,N
1543820075.2,286046995.0,N
1543820095.0,286046995.8,N
1543820095.9,286046995.8,N
1543820115.8,286046995.4,N
1543820135.6,286046993.8,Y
1543820155.5,286046998.7,P
1543820175.3,286046999.6,N
1543820195.1,286046996.7,N
1543820215.9,286046999.0,N
1543820235.7,286047000.0,N
1543820255.5,286047000.8,N
1543820275.4,286047001.9,N
1543820295.2,286047002.2,N
1543820315.1,286047000.7,N
1543820316.0,286047000.7,N
1543820335.8,286046999.0,N
1543820355.6,286046997.2,N
1543820375.5,286046997.6,N
1543820395.3,286046995.5,N
